Location: Andiroba
(19.8650°S, 43.9258°W)
Time: 00:07:07
(UTC+00:00)

Meteor 2-21 Rocket - Pass Details

Date: 15 June 2024
Orbit: 935 x 968 km, 82.6° (Epoch: 24 July)

Event Time Altitude Azimuth Distance (km) Brightness Sun altitude
Rises 07:59:18 0° 358° (N) 3,585 7.7 -20.3°
Reaches altitude 10° 08:01:46 10° 359° (N) 2,651 7.0 -19.8°
Maximum altitude 08:07:50 84° 87° (E) 961 4.5 -18.4°
Drops below altitude 10° 08:14:01 10° 173° (S) 2,699 6.7 -17.0°
Sets 08:16:32 0° 174° (S) 3,655 7.4 -16.5°
